SCP
0 0 0 0 0 0 0 0 0 0 0 0 0 0 0 0 0 0 0 0 0 0 -0 0 0 0 0 -0 -0 0 0 0 0 0 0 0 0 -0 -0 -0 0 0 0
0 0 0 0 0 0 -0 0 0 0 0 0 0 0 0 0 0 0 0 0 0 0 0 0 0 0 0 0 -0 0 0 0 0 0 0 0 0 -0 -0 0 0 0 0
0 0 0 0 0 0 0 0 0 0 0 0 0 0 0 0 0 0 0 0 0 0 0 0 0 0 0 0 0 0 0 0 0 0 0 0 0 0 0 0 0 0 0
0 0 0 0 0 0 0 0 0 0 0 0 0 0 0 0 0 0 0 0 0 0 0 0 0 0 0 0 0 0 0 0 0 0 0 0 0 0 0 0 0 0 0
0 0 0 0 0 0 0 0 0 0 0 0 0 0 0 0 0 0 0 0 0 0 0 0 0 0 0 0 0 0 0 0 0 0 0 0 0 0 0 0 0 0 0
0 0 0 0 0 0 0 0 0 0 0 0 0 0 0 0 0 0 0 0 0 0 0 0 0 0 0 0 0 0 0 0 0 0 0 0 0 0 0 0 0 0 0
0 0 0 0 0 0 0 0 0 0 0 0 0 0 0 0 0 0 0 0 0 0 0 0 0 0 0 0 0 0 0 0 0 0 0 0 0 -0 0 0 0 0 0
0 0 0 0 0 0 0 0 0 0 0 0 0 0 0 0 0 0 0 0 0 0 0 0 0 0 0 0 0 0 0 0 0 0 0 0 0 -0 -0 -0 0 0 0
0 0 0 0 0 0 0 0 0 0 0 0 0 0 0 0 0 0 0 0 0 0 0 0 0 0 0 0 0 0 0 0 0 0 0 0 0 0 -0 -0 0 0 0
0 0 0 0 0 0 0 0 0 0 0 0 0 0 0 0 0 0 0 0 0 0 0 0 0 0 0 0 0 0 0 0 0 0 0 0 0 0 0 -0 0 0 0
0 0 0 0 0 0 0 0 0 0 0 0 0 0 0 0 0 0 0 0 0 0 0 0 0 0 0 0 0 0 0 0 0 0 0 0 0 0 0 0 0 0 0
0 0 0 0 0 0 0 0 0 0 0 0 0 0 0 0 0 0 0 0 0 0 0 0 0 0 0 0 0 0 0 0 0 0 0 0 0 0 0 0 0 0 0
0 0 0 0 0 0 0 0 0 0 0 0 0 0 0 0 0 0 0 0 0 0 0 0 0 0 0 0 0 0 0 0 0 0 0 0 0 0 0 0 0 0 0
0 0 0 0 0 0 0 0 0 0 0 0 0 0 0 0 0 0 0 0 0 0 0 0 0 0 0 0 0 0 0 0 0 0 0 0 0 0 0 0 0 0 0
-0 0 0 0 0 0 0 0 0 0 0 0 0 0 0 0 0 0 0 0 0 0 0 0 0 0 0 0 0 0 0 0 0 0 0 0 0 0 0 0 0 0 0
0 -0 0 0 0 0 0 0 0 0 0 0 0 0 0 0 0 0 0 0 0 0 0 0 0 0 0 0 0 0 0 0 0 0 0 0 0 0 0 0 0 0 0
0 0 0 0 0 0 0 0 0 0 0 0 0 0 0 0 0 0 0 0 0 0 0 0 0 0 0 0 0 0 0 0 0 0 0 0 0 0 0 0 0 0 0
0 0 0 0 0 0 0 0 0 0 0 0 0 0 0 0 -0 -0 0 0 0 0 0 0 0 0 0 0 0 0 0 0 0 0 0 0 0 0 0 0 0 0 0
0 0 0 0 0 0 0 0 0 0 0 0 0 0 0 -0 0 0 0 0 0 0 0 0 0 0 0 0 0 0 0 0 0 0 0 0 0 0 0 0 0 0 0
0 0 0 0 0 0 0 0 0 0 0 0 0 0 0 0 0 0 0 0 0 0 0 0 0 0 0 0 0 0 0 0 0 0 0 0 0 0 0 0 0 0 0
0 0 0 0 0 0 0 0 0 0 0 0 0 0 0 0 0 0 0 0 0 0 0 0 0 0 0 0 0 0 0 0 0 0 0 0 0 0 0 0 0 0 0
0 0 0 0 0 0 0 0 0 0 0 0 0 0 0 0 0 0 0 0 0 0 0 0 0 0 0 0 0 0 0 0 0 0 0 0 0 0 0 0 0 0 0
0 0 0 0 0 0 0 0 0 0 0 0 0 0 0 0 0 0 0 0 0 0 0 0 0 0 0 0 0 0 0 0 0 0 0 0 0 0 0 0 0 0 0
0 0 0 0 0 0 0 0 0 0 0 0 0 0 0 0 0 0 0 -0 -0 -0 0 0 0 0 0 0 0 0 0 0 0 0 0 0 0 0 0 0 0 0 0
0 0 0 0 0 0 0 0 0 0 0 0 0 0 0 0 0 0 0 0 -0 -0 0 0 0 0 0 0 0 0 0 0 0 0 0 0 0 0 0 0 0 0 0
0 0 0 0 0 0 0 0 0 0 0 0 0 0 0 0 0 0 0 0 0 -0 0 0 0 0 0 0 0 0 0 0 0 0 0 0 0 0 0 0 0 0 0
Wind_Speed_500mb
35 34 39 39 37 75 50 78 79 77 75 72 71 63 49 49 58 56 45 49 42 37 50 60 49 39 34 44 43 51 49 42 40 33 24 18 10 9 6 4 14 17 20
40 40 39 46 39 37 97 48 86 79 75 74 77 67 56 39 61 59 51 54 45 41 36 62 54 42 36 45 50 52 48 42 32 32 24 17 12 15 8 8 15 19 20
46 42 41 45 45 32 38 33 60 72 68 76 75 70 57 45 65 59 53 54 48 42 46 49 56 45 36 47 53 52 50 38 31 23 20 17 11 11 12 10 15 20 19
46 48 44 41 42 38 27 28 67 74 74 81 79 73 61 55 65 56 61 56 54 45 46 54 60 49 45 52 52 51 48 42 33 30 25 18 16 13 15 18 18 21 20
45 47 49 42 38 34 42 37 44 58 101 83 75 75 70 65 64 67 66 62 52 47 40 57 63 60 55 51 54 52 50 44 41 37 27 20 13 12 15 19 24 24 22
44 44 46 45 39 35 34 41 41 56 62 83 91 69 78 74 71 71 69 59 54 49 43 53 65 66 59 55 60 57 56 53 45 36 25 19 12 6 7 12 26 28 23
45 43 43 44 42 35 36 30 30 50 47 66 85 86 77 81 76 76 74 66 57 51 51 55 66 72 64 60 61 60 58 50 43 32 25 20 13 7 6 11 22 27 26
44 44 42 42 43 41 36 35 28 23 39 43 48 73 62 72 77 78 71 70 61 58 51 54 69 78 76 71 67 59 59 55 49 33 28 24 19 16 10 9 19 26 29
49 43 42 41 41 42 42 39 36 29 15 46 44 37 31 36 74 89 77 72 65 62 51 50 66 77 80 77 73 68 62 55 48 42 39 32 28 25 18 13 15 20 24
55 46 41 41 40 41 42 40 39 35 31 35 49 62 60 37 49 43 73 72 64 63 57 52 61 82 87 82 79 74 67 57 51 47 42 39 35 36 28 22 19 19 18
55 54 45 42 42 42 42 43 42 40 40 27 54 30 72 59 65 53 55 65 66 67 64 58 54 78 92 86 77 73 68 59 54 52 50 50 38 43 36 30 25 25 21
64 57 53 45 43 43 44 44 44 44 40 43 44 48 45 75 76 66 62 79 84 77 72 67 60 62 76 77 83 79 70 61 54 54 58 58 50 48 42 38 34 32 27
66 65 58 52 47 47 44 44 45 46 46 49 42 54 47 46 73 85 84 79 81 73 73 73 66 61 61 67 71 72 65 56 52 57 64 62 64 50 47 46 40 37 36
69 64 62 55 53 49 46 45 47 46 49 50 53 52 53 55 25 95 87 78 64 74 84 80 79 71 63 62 66 63 57 49 47 53 59 66 67 55 50 46 41 34 34
70 63 61 59 53 50 48 49 50 49 47 51 53 53 53 66 72 33 112 92 88 63 76 77 66 78 69 65 63 61 54 48 45 52 54 60 66 58 53 49 44 41 44
65 63 60 57 55 50 48 48 51 49 48 49 50 52 60 51 63 95 79 85 92 82 60 78 82 71 74 70 65 64 56 53 48 50 57 56 60 55 51 46 47 49 47
62 62 56 59 58 51 48 48 50 50 49 50 53 56 61 56 61 61 53 107 101 91 79 87 70 72 69 73 70 73 66 59 57 51 53 57 60 59 56 52 51 52 51
58 58 58 57 54 52 49 48 49 52 53 53 51 54 58 65 73 69 51 33 113 108 98 82 85 88 89 76 71 75 72 68 66 60 55 53 58 60 61 59 55 52 53
57 56 54 56 54 52 52 50 49 51 54 55 53 52 57 58 77 68 53 35 61 99 96 86 86 89 94 84 78 77 75 74 68 67 64 61 58 60 60 59 57 58 59
56 55 54 56 57 55 54 52 49 49 53 56 51 54 57 57 65 72 70 49 34 66 97 84 90 91 93 88 82 81 83 75 73 74 73 71 69 66 65 61 58 56 61
57 56 56 57 57 55 51 50 50 51 54 59 62 59 60 62 66 77 80 82 40 33 70 91 86 95 94 93 98 91 84 78 80 79 78 78 77 75 73 71 66 62 56
56 53 53 53 54 54 53 52 51 54 56 60 66 65 59 60 63 66 87 91 71 50 26 84 89 107 100 93 87 90 88 89 87 83 83 79 79 79 74 75 70 63 56
52 51 51 51 53 52 49 50 51 54 57 59 65 68 66 65 61 62 69 86 109 99 94 54 68 101 102 101 91 88 92 94 92 81 82 79 73 71 67 66 63 60 59
51 50 49 47 47 47 46 49 52 56 60 62 62 65 68 68 66 63 64 73 83 108 100 75 82 110 96 90 94 88 86 88 84 83 74 71 70 68 64 60 59 59 56
49 47 44 43 44 46 42 43 45 49 57 57 56 58 60 64 66 62 64 71 86 118 92 68 66 97 101 99 84 88 92 88 83 80 74 66 64 67 71 66 62 58 56
43 42 44 43 43 47 39 36 38 42 50 51 51 51 53 58 63 66 68 67 70 111 106 77 66 94 98 95 92 93 88 89 85 81 79 70 68 67 59 68 67 63 58
Wind_Direction_500mb
289 284 261 259 266 238 251 243 237 229 226 225 227 226 229 220 207 206 211 225 226 226 225 206 189 190 190 174 176 171 172 175 173 173 184 192 232 305 297 235 183 162 156
301 288 280 272 268 266 240 261 230 234 228 226 225 224 221 225 206 208 214 223 227 226 215 195 191 185 191 179 179 178 180 179 186 174 187 198 244 284 282 244 207 175 168
305 296 288 283 285 279 266 261 215 232 229 228 221 225 221 225 198 211 213 219 222 216 213 206 191 186 192 177 185 182 182 184 185 182 192 219 239 257 263 249 229 190 182
306 302 295 288 287 281 257 241 227 244 234 230 220 218 220 217 206 216 221 223 217 217 214 208 205 193 192 183 186 186 180 179 186 197 205 221 253 250 258 246 230 207 192
313 306 301 295 288 280 261 265 237 247 238 222 222 219 215 219 212 217 219 222 221 226 224 210 203 201 192 190 186 185 186 182 188 197 208 228 225 246 257 245 213 210 198
323 312 303 299 295 276 272 250 255 233 239 233 231 216 217 216 214 217 220 223 228 225 222 209 204 203 195 194 188 187 185 185 192 198 200 193 196 231 274 234 208 206 201
328 322 310 302 298 291 276 280 253 247 243 232 221 223 212 212 215 215 219 223 224 222 222 214 207 200 200 200 194 193 191 190 191 203 204 200 208 218 244 252 219 206 201
331 328 321 309 301 293 281 279 289 245 242 241 247 222 202 205 217 214 220 218 220 222 225 214 208 201 199 199 197 194 191 194 196 211 218 217 217 213 214 225 225 207 206
326 328 322 314 306 299 294 281 281 297 271 236 238 215 194 207 206 208 214 213 217 220 225 213 205 200 201 204 198 197 199 204 206 211 222 221 219 211 206 196 215 216 213
320 324 321 313 309 303 295 289 283 272 288 242 224 231 199 209 183 189 203 210 215 222 225 216 211 206 204 209 202 201 201 205 210 218 230 229 220 211 207 200 208 203 204
316 319 318 313 310 305 297 295 286 280 266 266 220 220 236 226 218 201 194 204 212 221 228 222 217 210 208 206 203 206 208 212 219 225 227 231 226 214 212 206 211 209 204
317 315 316 313 308 304 301 297 291 285 264 262 256 227 245 217 228 218 210 206 207 211 218 222 217 212 203 205 206 212 216 221 227 227 226 224 227 216 214 221 211 211 205
316 315 314 312 306 306 301 297 292 285 279 271 259 242 240 238 221 224 209 204 201 207 211 219 222 217 216 215 212 214 220 227 230 225 221 219 220 218 217 213 215 212 212
317 313 312 307 306 302 300 295 292 286 283 275 265 254 258 229 239 221 214 201 193 203 208 210 215 221 220 218 217 217 217 219 222 217 214 214 214 219 215 217 221 220 224
315 312 308 306 304 301 299 296 292 288 283 279 273 259 260 248 234 249 222 215 205 194 202 207 211 219 222 221 220 216 217 217 217 213 210 212 213 217 222 223 225 228 230
310 312 307 304 304 299 297 298 292 293 289 281 278 265 257 252 233 236 236 223 210 205 197 206 216 220 219 219 221 219 222 219 216 216 215 213 211 218 222 228 233 230 231
308 307 306 304 302 299 296 295 292 288 296 285 278 274 261 254 245 249 234 228 218 220 205 209 216 226 222 218 217 221 228 224 216 217 217 217 218 223 226 228 231 232 231
307 306 304 303 301 298 296 295 292 285 290 288 280 273 270 255 250 259 247 229 213 211 214 213 210 217 225 219 221 222 224 223 220 216 216 217 221 224 229 232 233 235 237
308 304 301 301 300 295 295 291 289 286 284 286 281 275 272 267 252 257 244 243 223 223 217 216 215 220 219 215 214 219 224 224 222 220 222 222 224 226 229 234 236 240 242
308 305 302 300 297 293 291 290 288 287 285 284 284 276 272 260 257 251 252 246 258 213 217 207 217 215 218 216 214 214 216 219 220 220 221 224 226 227 231 234 237 243 244
306 303 302 298 294 291 289 289 288 287 288 287 286 283 274 270 264 250 249 249 231 220 211 209 210 215 218 214 213 212 215 214 216 220 221 223 225 226 230 233 237 240 249
306 304 299 297 294 289 285 282 280 279 280 280 281 284 281 271 269 261 248 247 234 240 242 217 207 206 215 218 214 215 212 213 217 221 222 224 227 229 233 236 239 237 245
306 302 300 298 294 290 287 281 280 278 276 274 274 277 277 270 269 263 257 250 245 245 256 257 214 212 217 218 215 215 217 216 221 224 218 222 226 229 229 231 230 237 239
308 305 303 300 296 291 289 283 282 279 275 273 273 273 272 271 268 264 264 256 252 248 250 244 226 224 227 223 222 221 222 222 225 226 224 229 230 226 222 226 228 230 230
310 307 305 303 300 293 293 288 286 281 278 274 270 271 271 270 270 266 262 259 253 246 247 234 230 221 227 226 226 223 224 223 223 227 227 231 229 225 224 226 225 226 229
314 312 310 308 304 299 297 290 286 283 281 279 279 276 269 267 273 271 265 260 260 237 241 231 245 220 228 232 228 226 228 223 225 224 228 229 224 219 217 223 224 223 226
Wind_Speed_850mb
35 34 39 39 37 75 50 78 79 77 75 72 71 63 49 49 58 56 45 49 42 37 50 60 49 39 34 44 43 51 49 42 40 33 24 18 10 9 6 4 14 17 20
40 40 39 46 39 37 97 48 86 79 75 74 77 67 56 39 61 59 51 54 45 41 36 62 54 42 36 45 50 52 48 42 32 32 24 17 12 15 8 8 15 19 20
46 42 41 45 45 32 38 33 60 72 68 76 75 70 57 45 65 59 53 54 48 42 46 49 56 45 36 47 53 52 50 38 31 23 20 17 11 11 12 10 15 20 19
46 48 44 41 42 38 27 28 67 74 74 81 79 73 61 55 65 56 61 56 54 45 46 54 60 49 45 52 52 51 48 42 33 30 25 18 16 13 15 18 18 21 20
45 47 49 42 38 34 42 37 44 58 101 83 75 75 70 65 64 67 66 62 52 47 40 57 63 60 55 51 54 52 50 44 41 37 27 20 13 12 15 19 24 24 22
44 44 46 45 39 35 34 41 41 56 62 83 91 69 78 74 71 71 69 59 54 49 43 53 65 66 59 55 60 57 56 53 45 36 25 19 12 6 7 12 26 28 23
45 43 43 44 42 35 36 30 30 50 47 66 85 86 77 81 76 76 74 66 57 51 51 55 66 72 64 60 61 60 58 50 43 32 25 20 13 7 6 11 22 27 26
44 44 42 42 43 41 36 35 28 23 39 43 48 73 62 72 77 78 71 70 61 58 51 54 69 78 76 71 67 59 59 55 49 33 28 24 19 16 10 9 19 26 29
49 43 42 41 41 42 42 39 36 29 15 46 44 37 31 36 74 89 77 72 65 62 51 50 66 77 80 77 73 68 62 55 48 42 39 32 28 25 18 13 15 20 24
55 46 41 41 40 41 42 40 39 35 31 35 49 62 60 37 49 43 73 72 64 63 57 52 61 82 87 82 79 74 67 57 51 47 42 39 35 36 28 22 19 19 18
55 54 45 42 42 42 42 43 42 40 40 27 54 30 72 59 65 53 55 65 66 67 64 58 54 78 92 86 77 73 68 59 54 52 50 50 38 43 36 30 25 25 21
64 57 53 45 43 43 44 44 44 44 40 43 44 48 45 75 76 66 62 79 84 77 72 67 60 62 76 77 83 79 70 61 54 54 58 58 50 48 42 38 34 32 27
66 65 58 52 47 47 44 44 45 46 46 49 42 54 47 46 73 85 84 79 81 73 73 73 66 61 61 67 71 72 65 56 52 57 64 62 64 50 47 46 40 37 36
69 64 62 55 53 49 46 45 47 46 49 50 53 52 53 55 25 95 87 78 64 74 84 80 79 71 63 62 66 63 57 49 47 53 59 66 67 55 50 46 41 34 34
70 63 61 59 53 50 48 49 50 49 47 51 53 53 53 66 72 33 112 92 88 63 76 77 66 78 69 65 63 61 54 48 45 52 54 60 66 58 53 49 44 41 44
65 63 60 57 55 50 48 48 51 49 48 49 50 52 60 51 63 95 79 85 92 82 60 78 82 71 74 70 65 64 56 53 48 50 57 56 60 55 51 46 47 49 47
62 62 56 59 58 51 48 48 50 50 49 50 53 56 61 56 61 61 53 107 101 91 79 87 70 72 69 73 70 73 66 59 57 51 53 57 60 59 56 52 51 52 51
58 58 58 57 54 52 49 48 49 52 53 53 51 54 58 65 73 69 51 33 113 108 98 82 85 88 89 76 71 75 72 68 66 60 55 53 58 60 61 59 55 52 53
57 56 54 56 54 52 52 50 49 51 54 55 53 52 57 58 77 68 53 35 61 99 96 86 86 89 94 84 78 77 75 74 68 67 64 61 58 60 60 59 57 58 59
56 55 54 56 57 55 54 52 49 49 53 56 51 54 57 57 65 72 70 49 34 66 97 84 90 91 93 88 82 81 83 75 73 74 73 71 69 66 65 61 58 56 61
57 56 56 57 57 55 51 50 50 51 54 59 62 59 60 62 66 77 80 82 40 33 70 91 86 95 94 93 98 91 84 78 80 79 78 78 77 75 73 71 66 62 56
56 53 53 53 54 54 53 52 51 54 56 60 66 65 59 60 63 66 87 91 71 50 26 84 89 107 100 93 87 90 88 89 87 83 83 79 79 79 74 75 70 63 56
52 51 51 51 53 52 49 50 51 54 57 59 65 68 66 65 61 62 69 86 109 99 94 54 68 101 102 101 91 88 92 94 92 81 82 79 73 71 67 66 63 60 59
51 50 49 47 47 47 46 49 52 56 60 62 62 65 68 68 66 63 64 73 83 108 100 75 82 110 96 90 94 88 86 88 84 83 74 71 70 68 64 60 59 59 56
49 47 44 43 44 46 42 43 45 49 57 57 56 58 60 64 66 62 64 71 86 118 92 68 66 97 101 99 84 88 92 88 83 80 74 66 64 67 71 66 62 58 56
43 42 44 43 43 47 39 36 38 42 50 51 51 51 53 58 63 66 68 67 70 111 106 77 66 94 98 95 92 93 88 89 85 81 79 70 68 67 59 68 67 63 58
Wind_Direction_850mb
289 284 261 259 266 238 251 243 237 229 226 225 227 226 229 220 207 206 211 225 226 226 225 206 189 190 190 174 176 171 172 175 173 173 184 192 232 305 297 235 183 162 156
301 288 280 272 268 266 240 261 230 234 228 226 225 224 221 225 206 208 214 223 227 226 215 195 191 185 191 179 179 178 180 179 186 174 187 198 244 284 282 244 207 175 168
305 296 288 283 285 279 266 261 215 232 229 228 221 225 221 225 198 211 213 219 222 216 213 206 191 186 192 177 185 182 182 184 185 182 192 219 239 257 263 249 229 190 182
306 302 295 288 287 281 257 241 227 244 234 230 220 218 220 217 206 216 221 223 217 217 214 208 205 193 192 183 186 186 180 179 186 197 205 221 253 250 258 246 230 207 192
313 306 301 295 288 280 261 265 237 247 238 222 222 219 215 219 212 217 219 222 221 226 224 210 203 201 192 190 186 185 186 182 188 197 208 228 225 246 257 245 213 210 198
323 312 303 299 295 276 272 250 255 233 239 233 231 216 217 216 214 217 220 223 228 225 222 209 204 203 195 194 188 187 185 185 192 198 200 193 196 231 274 234 208 206 201
328 322 310 302 298 291 276 280 253 247 243 232 221 223 212 212 215 215 219 223 224 222 222 214 207 200 200 200 194 193 191 190 191 203 204 200 208 218 244 252 219 206 201
331 328 321 309 301 293 281 279 289 245 242 241 247 222 202 205 217 214 220 218 220 222 225 214 208 201 199 199 197 194 191 194 196 211 218 217 217 213 214 225 225 207 206
326 328 322 314 306 299 294 281 281 297 271 236 238 215 194 207 206 208 214 213 217 220 225 213 205 200 201 204 198 197 199 204 206 211 222 221 219 211 206 196 215 216 213
320 324 321 313 309 303 295 289 283 272 288 242 224 231 199 209 183 189 203 210 215 222 225 216 211 206 204 209 202 201 201 205 210 218 230 229 220 211 207 200 208 203 204
316 319 318 313 310 305 297 295 286 280 266 266 220 220 236 226 218 201 194 204 212 221 228 222 217 210 208 206 203 206 208 212 219 225 227 231 226 214 212 206 211 209 204
317 315 316 313 308 304 301 297 291 285 264 262 256 227 245 217 228 218 210 206 207 211 218 222 217 212 203 205 206 212 216 221 227 227 226 224 227 216 214 221 211 211 205
316 315 314 312 306 306 301 297 292 285 279 271 259 242 240 238 221 224 209 204 201 207 211 219 222 217 216 215 212 214 220 227 230 225 221 219 220 218 217 213 215 212 212
317 313 312 307 306 302 300 295 292 286 283 275 265 254 258 229 239 221 214 201 193 203 208 210 215 221 220 218 217 217 217 219 222 217 214 214 214 219 215 217 221 220 224
315 312 308 306 304 301 299 296 292 288 283 279 273 259 260 248 234 249 222 215 205 194 202 207 211 219 222 221 220 216 217 217 217 213 210 212 213 217 222 223 225 228 230
310 312 307 304 304 299 297 298 292 293 289 281 278 265 257 252 233 236 236 223 210 205 197 206 216 220 219 219 221 219 222 219 216 216 215 213 211 218 222 228 233 230 231
308 307 306 304 302 299 296 295 292 288 296 285 278 274 261 254 245 249 234 228 218 220 205 209 216 226 222 218 217 221 228 224 216 217 217 217 218 223 226 228 231 232 231
307 306 304 303 301 298 296 295 292 285 290 288 280 273 270 255 250 259 247 229 213 211 214 213 210 217 225 219 221 222 224 223 220 216 216 217 221 224 229 232 233 235 237
308 304 301 301 300 295 295 291 289 286 284 286 281 275 272 267 252 257 244 243 223 223 217 216 215 220 219 215 214 219 224 224 222 220 222 222 224 226 229 234 236 240 242
308 305 302 300 297 293 291 290 288 287 285 284 284 276 272 260 257 251 252 246 258 213 217 207 217 215 218 216 214 214 216 219 220 220 221 224 226 227 231 234 237 243 244
306 303 302 298 294 291 289 289 288 287 288 287 286 283 274 270 264 250 249 249 231 220 211 209 210 215 218 214 213 212 215 214 216 220 221 223 225 226 230 233 237 240 249
306 304 299 297 294 289 285 282 280 279 280 280 281 284 281 271 269 261 248 247 234 240 242 217 207 206 215 218 214 215 212 213 217 221 222 224 227 229 233 236 239 237 245
306 302 300 298 294 290 287 281 280 278 276 274 274 277 277 270 269 263 257 250 245 245 256 257 214 212 217 218 215 215 217 216 221 224 218 222 226 229 229 231 230 237 239
308 305 303 300 296 291 289 283 282 279 275 273 273 273 272 271 268 264 264 256 252 248 250 244 226 224 227 223 222 221 222 222 225 226 224 229 230 226 222 226 228 230 230
310 307 305 303 300 293 293 288 286 281 278 274 270 271 271 270 270 266 262 259 253 246 247 234 230 221 227 226 226 223 224 223 223 227 227 231 229 225 224 226 225 226 229
314 312 310 308 304 299 297 290 286 283 281 279 279 276 269 267 273 271 265 260 260 237 241 231 245 220 228 232 228 226 228 223 225 224 228 229 224 219 217 223 224 223 226